Date,TemperatureHighF,TemperatureAvgF,TemperatureLowF,DewpointHighF,DewpointAvgF,DewpointLowF,HumidityHigh,HumidityAvg,HumidityLow,PressureMaxIn,PressureMinIn,WindSpeedMaxMPH,WindSpeedAvgMPH,GustSpeedMaxMPH,PrecipitationSumIn
2013-2-1,18,16,14,9,7,6,77,70,62,30.44,30.37,8,2,13,0.00
2013-2-2,32,24,14,28,20,9,93,85,74,30.37,30.03,13,2,13,0.00
2013-2-3,28,23,18,24,18,14,89,83,75,30.15,29.96,14,3,16,0.00
2013-2-4,36,28,19,35,25,17,98,88,71,30.15,29.84,15,2,15,0.01
2013-2-5,38,34,28,35,31,26,98,89,81,30.02,29.85,9,1,9,0.09
2013-2-6,38,34,29,33,29,26,90,82,73,30.27,30.02,10,1,10,0.00
2013-2-7,61,45,32,39,34,28,88,68,41,30.22,29.80,17,2,17,0.00
2013-2-8,53,38,31,46,33,24,95,82,59,30.33,29.79,20,4,20,0.06
2013-2-9,41,33,23,25,21,19,87,64,41,30.44,30.23,10,2,10,0.00
2013-2-10,56,44,34,47,32,22,93,65,41,30.23,29.79,23,5,23,0.02
2013-2-11,52,47,38,51,37,29,96,69,50,30.05,29.76,24,5,24,0.00
2013-2-12,50,40,30,30,28,24,84,64,39,30.14,29.90,10,2,10,0.00
2013-2-13,36,33,30,32,29,26,95,87,71,29.91,29.77,10,1,10,0.04
2013-2-14,53,40,31,40,34,29,96,80,54,30.00,29.83,17,3,17,0.03
2013-2-15,41,34,26,32,28,21,92,79,54,30.16,29.99,14,2,15,0.00
2013-2-16,29,23,18,22,17,11,95,76,53,30.16,30.06,16,2,16,0.00
2013-2-17,31,23,13,15,11,5,94,62,36,30.28,30.14,9,1,10,0.00
2013-2-18,59,42,25,41,26,9,84,53,43,30.24,29.75,30,6,31,0.07
2013-2-19,46,33,24,42,27,15,96,77,62,30.13,29.66,30,7,30,0.10
2013-2-20,28,23,19,16,14,11,80,67,55,30.33,30.13,16,3,17,0.00
2013-2-21,32,26,19,27,19,14,90,77,63,30.38,30.06,18,2,18,0.00
2013-2-22,44,36,30,39,34,27,99,93,81,30.09,29.89,12,2,12,0.05
2013-2-23,43,36,31,34,28,25,97,76,53,30.00,29.91,10,2,10,0.00
2013-2-24,42,33,26,28,25,22,89,74,53,30.16,29.94,10,2,10,0.00
2013-2-25,45,36,26,28,25,22,85,65,47,30.18,29.89,16,3,16,0.00
2013-2-26,49,42,36,49,38,24,98,86,58,29.90,29.35,19,4,19,0.87
2013-2-27,41,37,33,40,34,31,96,92,83,29.73,29.52,14,3,14,0.04
2013-2-28,36,34,32,34,32,30,96,91,87,29.97,29.70,15,3,15,0.01